STARLINK-37298, 68670

Orbit data source: Space-Track

STARLINK-37298, 68670 is a payload satellite owned by SpaceX/Seattle (US) in SSO that was launched on Sat, 11 Apr 2026 UTC via an FALCON 9 launch vehicle from the Air Force Western Test Range (AFWTR). Payload-class satellites include a variety of spacecraft equipped with specific instruments for various scientific and technological missions. These include communications satellites like Starlink; space stations such as the ISS; scientific satellites like the Hubble; Earth observation satellites from companies like Planet Labs, Umbra, and HawkEye 360; GPS; miniature CubeSats for education and research; and military/defense satellites.

Loading next visibility...
Identifier
68670, 2026-077J
Orbit
SSO
Country
Flag of USUS
Related business
Manufacturer
SpaceX/Seattle
Mission
Operational spacecraft
Bus & Motor
STARLINK V2MO, Unknown motor
Mass
575 kg wet, ~530 kg dry
Launch date (UTC)
2026-04-11 (2 months ago)
Launch vehicle
FALCON 9
Launch site
Air Force Western Test Range (AFWTR)
Object type
Payload
Rocket body
Debris
Shape & HBR
Unknown shape, 14.5 m
Radar Cross Section
Large (>1 m²)

Expand to show TLE details & history
Last TLE update: 16 hours ago

TLE from 16 hours ago
0 STARLINK-37298
1 68670U 26077J   26171.18203644  .00014160  00000-0  43997-3 0  9991
2 68670  97.2856  42.3631 0001208  98.1598 261.9781 15.33454806 10864
Epoch: 2026-06-20T04:22Z
TLE epoch observation values (Epoch: 2026-06-20T04:22:07.948Z)
Latitude
-0.0001°
Longitude
68.42966°
Altitude
468.741 km
Speed
7.632 km/s
True Right ascension
02h 49m 27s
True Declination
0° 00' 00"
Sunlit
Object was in daylight at epoch
Visualization orbit readout
Latitude
Unknown
Longitude
Unknown
Altitude
Unknown
Speed
Unknown
Apparent Right ascension
Unknown
Apparent Declination
Unknown
Sunlit
N/A
Visualization observer readout
Local Sidereal Time
07:20:49
Azimuth
Unknown
Elevation
Unknown
Doppler factor
Unknown
Orbital elements
Apogee altitude
463.283 km
Perigee altitude
461.63 km
Semi-major axis
6,840.594 km
Eccentricity
0.00012
Inclination
97.2856°
RAAN
42.3631°
Arg. of periapsis
98.1598°
True anomaly
261.96439°
Mean anomaly
261.9781°
Eccentric anomaly
261.97125°
Mean motion
3.83621 °/min
Orbital period
93.84 mins
BSTAR
0.00043997
Loading maneuver chart data...
Computing Atmospheric mass density...
Loading historical data...
Loading historical data...
Loading historical data...
Loading historical data...
Loading historical data...
Loading historical data...
Loading historical data...

Documentation

Showing up to 5 results
|